Location: Ammerl�gen
(47.2167°N, 9.6000°E)
Time: 11:05:44
(UTC+00:00)

CZ-4 R/B DEB - Pass Details

Date: 17 October 2021
Orbit: 738 x 791 km, 98.5° (Epoch: 26 November)

Event Time Altitude Azimuth Distance (km) Brightness Sun altitude
Exits shadow 19:56:39 25° 260° (W) 1,472 ? -35.0°
Maximum altitude 19:56:59 25° 266° (W) 1,465 ? -35.1°
Drops below altitude 10° 20:01:03 10° 322° (NW) 2,256 ? -35.7°
Sets 20:03:44 0° 335° (NNW) 3,185 ? -36.1°
